Vorticity
nan nan nan nan nan nan nan nan nan nan nan nan nan nan nan nan nan nan nan nan nan nan nan nan nan nan nan nan nan nan nan nan nan nan nan nan nan nan nan nan nan nan nan
nan 11 11 12 13 17 15 13 8 5 9 6 9 8 9 8 7 10 12 11 6 8 9 10 5 6 7 10 10 8 7 9 11 4 6 9 9 10 11 7 9 7 nan
nan 11 11 10 12 22 22 13 10 7 7 6 10 8 6 7 10 8 10 11 8 8 9 7 5 5 9 9 11 9 7 6 9 9 2 3 6 14 16 9 6 6 nan
nan 10 11 11 10 23 30 19 12 10 8 12 11 8 4 7 8 8 10 10 12 6 8 8 7 4 11 12 11 9 9 8 5 8 8 3 7 11 9 11 12 10 nan
nan 10 11 12 12 13 22 34 26 10 7 11 11 8 6 5 8 12 10 9 12 10 8 9 7 7 8 13 8 7 8 9 8 8 11 10 9 7 6 8 10 9 nan
nan 10 10 12 13 10 11 14 32 34 18 16 16 11 8 3 6 8 7 11 10 11 10 9 9 11 9 8 7 5 3 5 7 9 7 8 9 11 7 8 6 9 nan
nan 9 11 13 9 8 11 11 12 20 23 28 40 26 15 8 7 5 9 8 6 10 12 10 12 9 8 5 4 6 7 8 7 4 7 9 7 7 7 9 9 9 nan
nan 9 10 11 9 9 11 12 11 13 14 17 23 17 26 25 19 16 11 10 11 12 11 11 10 11 7 2 -1 2 6 10 13 7 5 7 9 8 9 8 8 9 nan
nan 8 10 11 11 10 10 11 10 12 9 11 11 17 11 20 15 15 18 17 14 13 14 11 8 9 7 3 3 6 11 11 10 11 8 7 6 7 10 10 9 8 nan
nan 11 8 9 10 12 11 10 13 12 11 10 7 14 9 13 11 10 10 10 13 13 14 11 9 8 8 11 11 9 10 7 5 9 8 7 7 9 9 10 10 9 nan
nan 10 10 10 11 10 10 11 11 12 12 10 12 7 13 11 11 9 13 8 7 9 10 11 11 9 9 9 7 9 13 9 8 7 8 7 7 7 9 11 9 8 nan
nan 10 10 10 12 11 11 10 10 10 10 7 15 14 8 9 13 7 9 8 8 11 12 11 10 11 10 9 10 8 7 8 10 10 9 8 10 9 8 11 11 9 nan
nan 11 10 10 11 10 10 9 10 9 8 13 8 11 13 8 4 11 8 10 10 11 10 10 11 11 11 11 11 11 8 10 10 8 8 10 8 8 8 8 10 10 nan
nan 11 10 10 10 9 11 10 10 12 10 6 8 9 6 15 9 9 11 12 10 11 11 9 10 11 12 13 15 13 13 13 10 10 11 10 9 9 8 9 8 9 nan
nan 11 10 10 9 10 10 12 10 10 11 8 10 9 10 11 11 8 9 11 11 10 10 13 11 11 14 9 10 17 16 15 14 15 13 11 14 11 9 8 10 10 nan
nan 8 10 10 10 11 10 10 10 10 10 10 8 9 8 10 11 11 12 10 9 10 10 9 11 13 8 7 8 16 17 13 14 11 12 18 18 14 12 7 7 10 nan
nan 9 10 10 10 9 11 9 10 12 10 10 7 9 10 9 8 11 8 8 11 11 11 10 10 11 7 6 6 10 15 15 11 9 10 11 13 16 12 12 11 10 nan
nan 10 11 9 9 10 10 10 10 9 10 10 11 9 10 10 8 9 10 10 9 9 10 10 10 12 7 1 7 16 17 16 16 15 11 8 10 15 15 11 13 13 nan
nan 10 10 10 9 10 10 9 9 9 10 8 8 9 10 11 10 8 10 11 12 11 9 9 9 10 7 5 9 16 20 16 18 19 18 14 14 17 14 7 10 12 nan
nan 10 10 10 10 10 10 10 8 8 8 9 10 9 11 10 9 9 9 12 11 11 10 9 11 10 7 5 9 20 20 13 14 15 19 21 18 15 12 8 8 10 nan
nan 11 11 10 10 11 10 10 9 9 10 9 8 8 10 10 9 11 10 10 11 10 9 11 10 8 8 5 5 18 22 13 13 16 15 15 18 19 14 9 4 12 nan
nan 11 11 9 10 12 13 9 10 10 11 11 10 9 11 10 8 10 11 9 11 12 10 11 13 9 5 3 5 12 16 19 18 13 12 10 15 25 26 20 14 13 nan
nan 9 10 9 9 11 12 10 10 12 12 11 10 12 12 10 11 9 11 9 9 11 11 11 11 11 11 1 0 12 18 23 20 10 5 9 18 24 24 21 27 13 nan
nan 9 9 9 9 10 10 10 10 13 14 12 11 12 9 10 13 12 11 9 10 12 11 10 10 11 10 11 12 13 10 15 18 14 14 12 12 13 15 14 14 13 nan
nan 10 9 9 9 11 10 9 10 12 14 13 11 13 11 10 11 12 10 12 11 11 14 14 12 10 11 9 12 18 19 17 15 16 14 12 12 11 11 12 12 14 nan
nan nan nan nan nan nan nan nan nan nan nan nan nan nan nan nan nan nan nan nan nan nan nan nan nan nan nan nan nan nan nan nan nan nan nan nan nan nan nan nan nan nan nan
CAPE
0 0 0 0 0 0 0 0 0 0 452 2394 2302 2380 2599 2572 2230 2343 2492 2547 2147 1967 2383 2548 2628 2044 2624 2611 2012 2070 1877 1828 1568 1621 1447 1462 1363 1217 942 650 431 819 755
0 0 0 0 0 0 0 0 0 0 0 2144 2327 2311 2541 2585 2497 2447 2543 2461 2822 1919 1853 1882 2233 1535 2127 2710 2731 1720 1478 1719 1658 1332 1212 897 1027 968 999 1011 868 939 777
3 3 4 4 0 10 0 0 0 0 0 35 2261 1913 2218 2477 2229 2033 2087 2305 2476 1820 1802 1667 2368 2418 2448 2374 2505 1591 1366 1490 1639 1710 1101 968 698 668 1296 1112 988 924 685
10 11 10 10 2 0 19 0 0 0 0 0 1624 1939 2077 2033 1852 1780 1897 1891 2028 1780 1546 1497 2352 2780 2488 2040 2014 1172 1455 1473 1297 1228 1668 1751 1600 868 970 884 729 832 673
6 5 13 14 7 1 0 47 0 0 0 0 947 2211 2098 2232 1990 1877 2024 2003 2388 2437 2000 1474 2259 2681 2521 1325 1083 1070 1008 1065 889 745 1100 1540 1574 1522 1205 673 741 682 539
17 9 5 11 15 6 0 3 78 3 0 0 561 2183 2209 2314 1982 2029 2236 2034 2383 2401 2599 2436 2343 2293 1699 1496 929 715 687 1010 958 1290 1020 808 919 1009 1074 1218 1083 929 887
18 26 10 10 16 14 12 4 3 3 5 76 190 1970 1813 2065 2284 2166 2183 2471 2365 2227 2521 2137 2139 1877 1736 1366 123 37 13 41 433 1360 1144 1470 987 772 664 1067 1135 994 1033
18 22 11 9 8 14 10 9 6 6 3 3 2 34 69 985 2032 2439 2885 2736 2437 1983 2159 2001 1277 1186 1409 454 399 193 0 0 300 1089 922 1486 1245 1116 814 767 1126 1102 1036
27 21 13 7 8 8 7 11 8 12 7 5 3 8 0 13 4 0 606 1160 1210 852 1011 786 876 658 952 832 847 782 354 240 411 537 983 1050 1170 1395 1431 1331 1159 1070 787
16 21 10 6 8 8 20 20 18 18 9 2 5 8 12 19 18 1 0 0 0 0 141 547 813 846 594 1011 1390 1168 926 958 1021 980 1271 1242 1045 1335 1627 1542 1420 1261 1053
15 13 6 3 4 1 3 24 26 18 16 5 10 18 25 15 12 10 4 1 0 0 0 0 0 23 334 487 589 898 1207 992 1216 1227 989 852 1081 1086 1430 1366 1385 1318 1185
12 12 13 7 6 2 2 16 19 41 24 12 8 29 16 22 3 2 0 1 0 0 0 0 0 0 0 0 4 151 448 506 559 548 629 659 711 876 952 889 1026 1318 1213
12 11 8 10 13 7 2 5 34 9 6 3 5 6 6 8 5 0 0 0 0 0 0 0 0 0 0 0 0 0 0 3 470 485 232 374 432 479 684 530 456 761 867
17 15 11 10 10 7 5 0 4 0 1 7 1 3 2 3 0 0 0 3 1 0 0 0 0 0 0 0 0 0 0 3 6 28 351 510 337 209 588 686 369 428 633
18 17 16 15 11 10 5 1 1 4 7 6 4 4 3 3 2 2 1 1 1 1 1 0 0 0 0 0 0 0 0 2 11 21 24 167 294 94 223 415 249 215 196
20 13 10 14 11 15 12 15 16 13 4 1 5 4 4 2 2 3 3 2 4 5 5 5 5 5 2 0 0 0 2 2 6 9 2 100 3 0 0 0 22 198 37
5 8 8 7 17 17 14 13 12 6 6 5 7 2 4 0 1 0 0 0 1 4 5 5 6 6 7 0 0 0 2 2 4 5 7 3 49 5 220 0 0 0 0
3 3 6 8 10 12 16 10 11 10 12 8 7 6 6 4 4 2 1 4 3 5 5 6 3 4 3 0 3 3 5 5 6 6 11 4 18 43 6 28 0 0 0
3 4 5 7 10 12 13 10 9 6 8 11 12 10 8 4 7 6 7 4 3 6 8 6 5 4 4 1 7 8 10 6 7 7 13 13 48 47 0 8 0 1 1
3 5 5 7 10 16 14 12 13 12 13 16 16 10 10 11 10 13 8 5 3 3 8 5 12 1 10 2 7 7 13 12 9 5 5 9 9 65 1 0 0 0 0
4 5 5 7 9 16 18 17 16 15 16 15 16 14 10 10 7 9 8 6 4 5 7 6 9 6 9 11 8 8 11 9 5 3 0 1 0 1 2 1 0 0 0
7 6 7 8 6 4 18 15 15 16 13 13 13 14 15 16 14 13 13 8 7 7 20 20 15 22 21 10 6 8 8 6 3 2 1 0 0 1 1 1 0 1 1
8 5 7 6 8 6 20 19 17 13 11 14 13 12 17 19 19 24 20 25 21 19 17 22 13 21 31 25 8 6 4 5 3 3 2 1 1 0 0 1 1 1 0
6 7 7 7 10 11 7 19 12 13 15 20 19 16 19 18 20 23 27 23 25 26 25 23 22 27 30 24 31 19 16 5 7 5 5 1 0 0 1 0 0 0 0
5 5 8 5 7 11 7 8 8 6 11 16 22 19 20 23 26 36 24 28 16 24 21 21 23 24 31 26 16 15 18 14 10 4 1 0 1 0 0 0 0 0 0
3 4 6 6 5 6 8 8 9 10 5 6 11 17 19 26 27 34 39 9 4 4 8 4 12 23 9 10 11 11 13 7 2 11 7 1 1 0 1 0 0 0 0